N0KTA-2 Weather Reports


Display with metric or nautical units.
time (UTC)temp
F
wind
direction
speed
MPH
gust
MPH
rain 1hr
in
rain 24hr
in
rain mn
in
humidity
%
barometer
mb
20260507123105 46 44 0.0 0.0 0.00 0.00 0.00 87 1015.7
20260507122105 45 44 0.0 0.0 0.00 0.00 0.00 86 1015.8
20260507121103 45 44 0.0 0.0 0.00 0.00 0.00 86 1015.8
20260507120104 45 44 0.0 0.0 0.00 0.00 0.00 85 1015.5
20260507115103 45 44 0.0 0.0 0.00 0.00 0.00 84 1015.3
20260507114103 45 44 0.0 0.0 0.00 0.00 0.00 84 1015.3
20260507113103 45 44 0.0 0.0 0.00 0.00 0.00 83 1015.3
20260507112104 46 44 0.0 0.0 0.00 0.00 0.00 83 1015.3
20260507111103 46 44 0.0 0.0 0.00 0.00 0.00 82 1015.2
20260507105104 47 44 0.0 0.0 0.00 0.00 0.00 82 1015.1
20260507104103 47 44 0.0 0.0 0.00 0.00 0.00 82 1015.1
20260507103102 47 44 0.0 0.0 0.00 0.00 0.00 82 1015.1
20260507102103 47 44 0.0 0.0 0.00 0.00 0.00 82 1015.3
20260507101104 46 44 0.0 0.0 0.00 0.00 0.00 82 1015.4
20260507100103 47 44 0.0 0.0 0.00 0.00 0.00 79 1015.3
20260507095104 47 44 0.0 0.0 0.00 0.00 0.00 78 1015.4
20260507094103 48 44 0.0 0.0 0.00 0.00 0.00 78 1015.4
20260507093103 48 44 0.0 0.0 0.00 0.00 0.00 77 1015.3
20260507092104 49 44 0.0 0.0 0.00 0.00 0.00 77 1015.4
20260507091103 49 44 0.0 0.0 0.00 0.00 0.00 75 1015.4
20260507090105 50 44 0.0 0.0 0.00 0.00 0.00 74 1015.3
20260507085103 50 44 0.0 0.0 0.00 0.00 0.00 73 1015.2
20260507084104 51 44 0.0 0.0 0.00 0.00 0.00 73 1015.3
20260507083103 51 44 0.0 0.0 0.00 0.00 0.00 72 1015.5
20260507082103 51 44 0.0 0.0 0.00 0.00 0.00 72 1015.4
20260507081103 51 44 0.0 0.0 0.00 0.00 0.00 73 1015.5
20260507080104 51 44 0.0 0.0 0.00 0.00 0.00 72 1015.5
20260507075103 51 44 0.0 2.0 0.00 0.00 0.00 73 1015.6
20260507074103 51 44 0.0 0.0 0.00 0.00 0.00 73 1015.6
20260507073103 50 44 0.0 0.0 0.00 0.00 0.00 73 1015.9
20260507072104 51 44 0.0 0.0 0.00 0.00 0.00 72 1015.9
20260507071103 51 44 0.0 2.0 0.00 0.00 0.00 72 1015.9
20260507070104 51 44 0.0 0.0 0.00 0.00 0.00 74 1016.0
20260507065102 51 44 0.0 0.0 0.00 0.00 0.00 78 1016.0
20260507064103 50 44 0.0 0.0 0.00 0.00 0.00 77 1016.1
20260507063102 50 44 0.0 0.0 0.00 0.00 0.00 77 1016.2
20260507062103 50 44 0.0 0.0 0.00 0.00 0.00 76 1016.1
20260507061103 50 44 0.0 0.0 0.00 0.00 0.00 76 1016.1
20260507060104 50 44 0.0 0.0 0.00 0.00 0.00 75 1016.3
20260507055103 49 44 0.0 0.0 0.00 0.00 0.00 78 1016.4
20260507054104 49 44 0.0 0.0 0.00 0.00 0.00 74 1016.5
20260507053103 49 44 0.0 0.0 0.00 0.00 0.00 75 1016.3
20260507052103 49 44 0.0 0.0 0.00 0.00 0.00 74 1016.2
20260507051104 49 44 0.0 0.0 0.00 0.00 0.00 73 1016.3
20260507050103 49 44 0.0 0.0 0.00 0.00 0.00 72 1016.3
20260507045104 50 44 0.0 0.0 0.00 0.00 0.00 72 1016.3
20260507044103 50 44 0.0 0.0 0.00 0.00 0.00 71 1016.3
20260507043104 50 44 0.0 0.0 0.00 0.00 0.00 70 1016.2
20260507042104 51 44 0.0 0.0 0.00 0.00 0.00 68 1016.1
20260507041103 52 44 0.0 0.0 0.00 0.00 0.00 67 1015.9
20260507040104 53 44 0.0 0.0 0.00 0.00 0.00 65 1016.3
20260507035102 53 44 0.0 0.0 0.00 0.00 0.00 64 1016.3
20260507034102 54 44 0.0 0.0 0.00 0.00 0.00 64 1016.2
20260507033104 54 44 0.0 0.0 0.00 0.00 0.00 62 1016.1
20260507032104 55 28 0.0 0.0 0.00 0.01 0.00 59 1016.0
20260507031103 55 28 0.0 0.0 0.00 0.01 0.00 59 1016.1
20260507025104 55 28 0.0 0.0 0.00 0.01 0.00 58 1016.0
20260507024103 55 28 0.0 0.0 0.00 0.01 0.00 59 1015.9
20260507023104 55 28 0.0 0.0 0.00 0.02 0.00 58 1015.8
20260507022103 55 28 0.0 0.0 0.00 0.02 0.00 59 1015.8
20260507021103 56 28 0.0 0.0 0.00 0.02 0.00 55 1015.8
20260507020104 56 28 0.0 0.0 0.00 0.02 0.00 56 1015.6
20260507015104 57 28 0.0 0.0 0.00 0.02 0.00 60 1015.2
20260507014104 57 28 0.0 0.0 0.00 0.02 0.00 56 1015.2
20260507013103 57 28 0.0 1.0 0.00 0.02 0.00 53 1015.1
20260507012104 58 19 1.0 1.0 0.00 0.02 0.00 51 1014.9
20260507011103 58 0 0.0 0.0 0.00 0.02 0.00 49 1014.9
20260507010104 58 33 1.0 2.0 0.00 0.02 0.00 49 1014.9
20260507005103 59 27 1.0 3.0 0.00 0.02 0.00 47 1014.9
20260507004104 59 26 1.0 2.0 0.00 0.02 0.00 47 1014.9
20260507003103 59 23 5.0 5.0 0.00 0.02 0.00 46 1014.8
20260507002104 59 21 3.0 6.0 0.00 0.02 0.00 45 1014.9
20260507001102 59 24 2.0 5.0 0.00 0.02 0.00 45 1014.9
20260506235104 59 20 2.0 3.0 0.00 0.02 0.00 45 1014.8
20260506234103 60 42 2.0 3.0 0.00 0.02 0.00 44 1014.6
20260506233103 60 36 3.0 6.0 0.00 0.02 0.00 45 1014.6
20260506232104 60 59 1.0 3.0 0.00 0.02 0.00 44 1014.6
20260506231103 61 22 3.0 5.0 0.00 0.02 0.00 42 1014.4
20260506225104 62 320 1.0 2.0 0.00 0.02 0.00 41 1014.3
20260506224102 61 335 1.0 1.0 0.00 0.02 0.00 43 1014.2
20260506223104 61 23 5.0 6.0 0.00 0.02 0.00 42 1014.1
20260506222102 61 356 0.0 3.0 0.00 0.02 0.00 41 1014.2
20260506221103 61 20 2.0 6.0 0.00 0.02 0.00 41 1014.2
20260506215102 61 33 3.0 6.0 0.00 0.02 0.00 41 1014.3
20260506214103 62 43 6.0 12.0 0.00 0.02 0.00 41 1014.2
20260506213102 62 329 1.0 10.0 0.00 0.02 0.00 42 1014.3
20260506212102 61 341 3.0 7.0 0.00 0.02 0.00 40 1014.4
20260506211103 62 72 7.0 7.0 0.00 0.02 0.00 40 1014.6
20260506205103 61 19 5.0 6.0 0.00 0.02 0.00 41 1014.7
20260506204104 61 22 3.0 3.0 0.00 0.02 0.00 42 1014.8
20260506203103 62 48 3.0 3.0 0.00 0.02 0.00 41 1014.9
20260506202103 61 29 2.0 9.0 0.00 0.02 0.00 43 1015.2
20260506201103 62 37 5.0 6.0 0.00 0.02 0.00 40 1015.2
20260506200104 61 38 3.0 6.0 0.00 0.02 0.00 40 1015.4
20260506195103 61 36 6.0 8.0 0.00 0.02 0.00 40 1015.7
20260506194102 61 195 2.0 3.0 0.00 0.02 0.00 40 1015.7
20260506193104 61 101 3.0 9.0 0.00 0.02 0.00 39 1015.7
20260506192103 61 13 2.0 7.0 0.00 0.02 0.00 41 1015.6
20260506191103 61 67 2.0 3.0 0.00 0.02 0.00 42 1015.6
20260506185103 60 38 5.0 9.0 0.00 0.02 0.00 42 1015.7
20260506184103 60 21 7.0 16.0 0.00 0.02 0.00 43 1015.8
20260506183102 60 27 5.0 8.0 0.00 0.02 0.00 46 1015.9
20260506182103 59 33 3.0 3.0 0.00 0.02 0.00 48 1016.3
20260506181102 59 24 8.0 13.0 0.00 0.02 0.00 48 1016.3
20260506180103 59 23 6.0 12.0 0.00 0.02 0.00 49 1016.3
20260506175102 59 53 3.0 5.0 0.00 0.02 0.00 47 1016.3
20260506174104 58 20 1.0 5.0 0.00 0.02 0.00 48 1016.4
20260506173103 58 21 5.0 14.0 0.00 0.02 0.00 49 1016.6
20260506172103 58 27 7.0 12.0 0.00 0.02 0.00 50 1016.6
20260506171103 57 34 7.0 9.0 0.00 0.02 0.00 53 1016.6
20260506170104 57 24 8.0 13.0 0.00 0.02 0.00 51 1016.7
20260506165103 57 27 6.0 12.0 0.00 0.02 0.00 55 1016.4
20260506164104 56 31 3.0 7.0 0.00 0.02 0.00 55 1016.6
20260506163103 56 44 5.0 6.0 0.00 0.02 0.00 57 1016.3
20260506162104 56 348 3.0 9.0 0.00 0.02 0.00 61 1016.4
20260506161103 55 26 3.0 9.0 0.00 0.02 0.00 62 1016.3
20260506160104 54 22 5.0 10.0 0.00 0.02 0.00 64 1016.7
20260506155103 54 7 2.0 8.0 0.00 0.02 0.00 66 1016.6
20260506154102 53 330 6.0 7.0 0.00 0.02 0.00 63 1016.5
20260506153103 54 20 5.0 10.0 0.00 0.02 0.00 66 1016.4
20260506152102 52 15 5.0 6.0 0.00 0.02 0.00 67 1016.4
20260506151105 51 42 7.0 8.0 0.00 0.02 0.00 67 1016.8
20260506150104 51 23 6.0 6.0 0.00 0.02 0.00 68 1016.7
20260506145103 50 18 2.0 3.0 0.00 0.02 0.00 71 1016.4
20260506144104 50 26 5.0 6.0 0.00 0.02 0.00 70 1016.6
20260506143105 50 14 2.0 3.0 0.00 0.02 0.00 72 1016.5
20260506142104 50 29 5.0 7.0 0.00 0.02 0.00 71 1016.6
20260506141105 50 19 1.0 3.0 0.00 0.02 0.00 72 1016.6
20260506140104 49 31 3.0 5.0 0.00 0.02 0.00 75 1016.1
20260506135105 48 24 3.0 7.0 0.00 0.02 0.00 78 1016.2
20260506134104 47 13 3.0 3.0 0.00 0.02 0.00 80 1016.3
20260506133105 47 42 2.0 3.0 0.00 0.02 0.00 80 1016.3
20260506132104 47 29 5.0 6.0 0.00 0.02 0.00 81 1016.6
20260506131105 46 40 0.0 2.0 0.00 0.02 0.00 83 1016.6
20260506130104 46 14 1.0 3.0 0.00 0.02 0.00 82 1016.3
20260506125105 46 30 3.0 3.0 0.00 0.02 0.00 82 1016.0
20260506124104 46 347 2.0 3.0 0.00 0.02 0.00 82 1015.9